Orbital Elements at Epoch 2459000.5 (2020-May-31.0) TDB
Reference: JPL 14 (heliocentric ecliptic J2000)
Element | Value | Uncertainty (1-sigma) | Units |
e | .2252720257752029 | 5.7484e-08 | |
a | 3.106461437404804 | 3.4233e-08 | au |
q | 2.406662576408075 | 1.9665e-07 | au |
i | 1.598694833952509 | 5.3882e-06 | deg |
node | 87.29121990991148 | 0.00023962 | deg |
peri | 178.8328889439556 | 0.00024012 | deg |
M | 318.7085361413225 | 1.5895e-05 | deg |
tp | 2459229.879792736243 (2021-Jan-15.37979274) | 9.0287e-05 | TDB |
period | 1999.849791416239 5.48 | 3.3057e-05 9.051e-08 | d yr |
n | .1800135197879326 | 2.9756e-09 | deg/d |
Q | 3.806260298401533 | 4.1944e-08 | au |
|
| | Orbit Determination Parameters
Additional Information
|